Torna al catalogo

OPS 4311

DMSP 5B F1

AttivoMeteoSSO
NORAD 5557·PAYLOAD·🇺🇸 United States

Lanciato Oct 14, 1971 da Vandenberg Space Force Base

Loading…

Prossimi Passaggi (prossime 24 ore)

TLE

AggiornatoSource: Space-Track

Epoca: Sep 14, 2026, 13:55 UTC

1 05557U 71087A   26257.58021883  .00000111  00000-0  62490-4 0  9990
2 05557  99.0243   2.9887 0050470  11.5492 348.6833 14.28547853853203

Traccia OPS 4311 in tempo reale con AllMySat

Download on the App Store